• Join FlightAware (Why Join?)
  • Login
  • US Flag 
01:52AM EST


 

Airport Tracker/Info


-or-


 

Live Flight TrackerFlight Track Log ✈ EGF4383 ✈ 26-Apr-2013 ✈ KCHO - KORD

Flight Track Log - Related Links

Times and Time Zones

All times are in EDT time to prevent confusion due to time zone crossing. See the EGF4383 flight status page for this flight to view local times or setup timezone preferences in your user account.

Time Position Orientation Groundspeed Altitude Reporting Facility
EDT Latitude Longitude Course Direction KTS MPH feet Rate Location/Type
05:41PM 38.0833 -78.4833 294° West 188 216 2,900  Level Potomac TRACON
05:42PM 38.0333 -78.5167 208° Southwest 252 290 4,800 2,176 Climbing Potomac TRACON
05:43PM 38.2346 -78.7370 293° West  Level FlightAware Approximate
05:43PM 37.9850 -78.5319 194° South 255 293 6,600  Level Washington Center
05:44PM 38.2713 -78.8329 299° West  Level FlightAware Approximate
05:44PM 37.9603 -78.6047 247° West 206 237 8,800  Level Washington Center
05:45PM 38.3112 -78.9269 298° West  Level FlightAware Approximate
05:45PM 37.9958 -78.6853 299° West 201 231 10,800  Level Washington Center
05:46PM 38.3506 -79.0213 298° West  Level FlightAware Approximate
05:46PM 38.0356 -78.7608 304° West 278 320 12,200  Level Washington Center
05:47PM 38.3891 -79.1164 294° West  Level FlightAware Approximate
05:47PM 38.0808 -78.8550 301° West 291 335 13,600  Level Washington Center
05:48PM 38.1303 -78.9547 302° West 310 357 14,900 1,475 Climbing Washington Center
05:49PM 38.1833 -79.0681 301° West 332 382 16,500 1,475 Climbing Washington Center
05:50PM 38.2347 -79.1711 302° West 337 388 17,800 1,082 Climbing Washington Center
05:51PM 38.2858 -79.2739 302° West 343 395 18,700 1,131 Climbing Washington Center
05:52PM 38.3367 -79.3772 302° West 343 395 20,100 1,373 Climbing Washington Center
05:53PM 38.3817 -79.4747 301° West 348 400 21,400 1,333 Climbing Washington Center
05:54PM 38.4322 -79.5808 301° West 348 400 22,700 793 Climbing Washington Center
05:55PM 38.4806 -79.6922 299° West 348 400 23,000 148 Climbing Washington Center
05:56PM 38.5178 -79.8269 289° West 361 415 23,000  Level Washington Center
05:57PM 38.5556 -79.9378 294° West 361 415 23,000 203 Level Washington Center
05:58PM 38.6122 -80.0394 306° West 351 404 23,400 496 Climbing Washington Center
05:59PM 38.6586 -80.1328 302° West 338 389 24,000 759 Climbing Washington Center
05:59PM 38.6739 -80.1539 313° West 315 362 24,500 1,500 Climbing Indianapolis Center
06:00PM 38.7189 -80.2397 304° West 296 341 26,200 1,597 Climbing Indianapolis Center
06:01PM 38.7672 -80.3344 303° West 267 307 27,800 1,210 Climbing Indianapolis Center
06:02PM 38.8108 -80.4206 303° West 286 329 28,700 919 Climbing Indianapolis Center
06:03PM 38.8581 -80.5092 304° West 298 343 29,700 968 Climbing Indianapolis Center
06:04PM 38.9061 -80.6036 303° West 314 361 30,700 968 Climbing Indianapolis Center
06:05PM 38.9553 -80.6986 304° West 320 368 31,700 968 Climbing Indianapolis Center
06:06PM 39.0058 -80.7956 304° West 326 375 32,700 823 Climbing Indianapolis Center
06:08PM 39.0586 -80.9186 299° West 328 377 33,400 726 Climbing Indianapolis Center
06:09PM 39.1028 -81.0253 298° West 337 388 34,200 968 Climbing Indianapolis Center
06:10PM 39.1456 -81.1297 298° West 332 382 35,400 871 Climbing Indianapolis Center
06:11PM 39.1878 -81.2300 299° West 323 372 36,000 290 Climbing Indianapolis Center
06:12PM 39.2300 -81.3325 298° West 325 374 36,000  Level Indianapolis Center
06:13PM 39.2717 -81.4361 297° West 327 376 36,000  Level Indianapolis Center
06:14PM 39.3217 -81.5586 298° West 323 372 36,000  Level Indianapolis Center
06:15PM 39.3633 -81.6622 298° West 326 375 36,000  Level Indianapolis Center
06:16PM 39.4047 -81.7656 297° West 325 374 36,000  Level Indianapolis Center
06:17PM 39.4469 -81.8678 298° West 324 373 36,000  Level Indianapolis Center
06:18PM 39.4869 -81.9711 297° West 323 372 36,000  Level Indianapolis Center
06:19PM 39.5361 -82.0931 298° West 319 367 36,000  Level Indianapolis Center
06:20PM 39.5731 -82.1836 298° West 319 367 36,000  Level Indianapolis Center
06:21PM 39.6133 -82.2869 297° West 319 367 36,000  Level Indianapolis Center
06:22PM 39.6622 -82.4111 297° West 327 376 36,000  Level Indianapolis Center
06:23PM 39.7033 -82.5167 297° West 326 375 36,000  Level Indianapolis Center
06:24PM 39.7450 -82.6222 297° West 327 376 36,000  Level Indianapolis Center
06:25PM 39.7861 -82.7269 297° West 326 375 36,000  Level Indianapolis Center
06:26PM 39.8275 -82.8314 297° West 323 372 36,000  Level Indianapolis Center
06:27PM 39.8678 -82.9347 297° West 320 368 36,000  Level Indianapolis Center
06:28PM 39.9144 -83.0575 296° West 322 371 36,000  Level Indianapolis Center
06:29PM 39.9556 -83.1631 297° West 326 375 36,000  Level Indianapolis Center
06:30PM 39.9964 -83.2692 297° West 328 377 36,000  Level Indianapolis Center
06:31PM 40.0367 -83.3744 297° West 326 375 36,000  Level Indianapolis Center
06:32PM 40.0764 -83.4794 296° West 323 372 36,000  Level Indianapolis Center
06:33PM 40.1167 -83.5850 297° West 325 374 36,000  Level Indianapolis Center
06:34PM 40.1633 -83.7089 296° West 325 374 36,000  Level Indianapolis Center
06:35PM 40.2039 -83.8161 296° West 327 376 36,000  Level Indianapolis Center
06:36PM 40.2450 -83.9239 297° West 328 377 36,000 -194 Level Indianapolis Center
06:37PM 40.2903 -84.0278 300° West 327 376 35,600 -581 Descending Indianapolis Center
06:39PM 40.3506 -84.1219 310° West 335 386 34,800 -1,403 Descending Indianapolis Center
06:40PM 40.4103 -84.2211 308° West 342 394 32,700 -1,355 Descending Indianapolis Center
06:41PM 40.4811 -84.3394 308° West 351 404 32,000 -339 Descending Indianapolis Center
06:42PM 40.5411 -84.4414 308° West 348 400 32,000  Level Indianapolis Center
06:43PM 40.6014 -84.5419 308° West 349 402 32,000  Level Indianapolis Center
06:43PM 40.6264 -84.5847 308° West 348 400 32,000  Level Chicago Center
06:44PM 40.6856 -84.6853 308° West 349 402 32,000  Level Chicago Center
06:45PM 40.7411 -84.7878 306° West 346 398 32,000  Level Chicago Center
06:46PM 40.7892 -84.8989 300° West 346 398 32,000  Level Chicago Center
06:47PM 40.8367 -85.0089 300° West 346 398 32,000  Level Chicago Center
06:48PM 40.8961 -85.1403 301° West 346 398 32,000 -145 Level Chicago Center
06:49PM 40.9450 -85.2506 300° West 347 399 31,700 -823 Descending Chicago Center
06:50PM 40.9953 -85.3669 300° West 358 412 30,300 -1,344 Descending Chicago Center
06:51PM 41.0425 -85.4783 299° West 349 402 28,900 -1,248 Descending Chicago Center
06:52PM 41.0914 -85.5897 300° West 348 400 27,700 -1,403 Descending Chicago Center
06:53PM 41.1431 -85.7069 300° West 364 419 26,000 -1,306 Descending Chicago Center
06:54PM 41.1964 -85.8300 300° West 380 437 25,000 -484 Descending Chicago Center
06:56PM 41.2611 -85.9819 300° West 390 449 25,000  Level Chicago Center
06:57PM 41.3047 -86.1144 294° West 400 460 25,000 -677 Level Chicago Center
06:58PM 41.3378 -86.2508 288° West 395 455 23,600 -1,548 Descending Chicago Center
06:59PM 41.3725 -86.3872 289° West 390 449 21,800 -1,694 Descending Chicago Center
07:00PM 41.4053 -86.5192 288° West 380 437 20,100 -1,694 Descending Chicago Center
07:01PM 41.4381 -86.6539 288° West 382 440 18,300 -1,694 Descending Chicago Center
07:02PM 41.4772 -86.8128 288° West 382 440 16,600 -1,645 Descending Chicago Center
07:03PM 41.5103 -86.9447 289° West 380 437 14,900 -1,742 Descending Chicago Center
07:04PM 41.5419 -87.0728 288° West 371 427 13,000 -1,631 Descending Chicago Center
07:04PM 41.5667 -87.1667 289° West 341 392 12,100 -653 Descending Chicago TRACON
07:05PM 41.6000 -87.2833 291° West 333 383 11,900 -429 Descending Chicago TRACON
07:06PM 41.6256 -87.3167 316° Northwest 341 392 11,500 -1,047 Descending Chicago Center
07:07PM 41.6864 -87.4156 309° West 347 399 10,400 -683 Descending Chicago Center
07:08PM 41.7397 -87.5058 308° West 315 362 10,100 -1,171 Descending Chicago Center
07:09PM 41.7847 -87.5803 309° West 264 304 8,000 -1,915 Descending Chicago Center
07:09PM 41.8167 -87.6333 309° West 267 307 7,100 -652 Descending Chicago TRACON
07:10PM 41.8667 -87.7000 315° West 262 302 7,000 -50 Descending Chicago TRACON
07:11PM 41.9333 -87.7167 349° North 241 277 7,000 -200 Level Chicago TRACON
07:12PM 41.9833 -87.7000 14° North 224 258 6,600 -750 Descending Chicago TRACON
07:13PM 42.0500 -87.6833 11° North 214 246 5,500 -1,150 Descending Chicago TRACON
07:14PM 42.1000 -87.6667 14° North 213 245 4,300 -750 Descending Chicago TRACON
07:15PM 42.1167 -87.7333 289° West 179 206 4,000 -300 Descending Chicago TRACON